Weather History for Fort Morgan, CO

Change the Weather History Date:

Tuesday, December 4, 2012

  Actual Average (KAKO) Record (KAKO)
Temperature  
Mean Temperature 34 °F 30 °F  
Max Temperature 51 °F 41 °F 71 °F (1980)
Min Temperature 18 °F 18 °F -8 °F (2013)
Degree Days  
Heating Degree Days 30    
Month to date heating degree days  
Cooling Degree Days 0    
Month to date cooling degree days  
Moisture  
Dew Point 15 °F    
Average Humidity 52    
Maximum Humidity 83    
Minimum Humidity 23    
Precipitation  
Precipitation 0.00 in 0.01 in 0.29 in (1958)
Month to date precipitation 0.07  
Year to date precipitation 16.41  
Sea Level Pressure  
Sea Level Pressure 30.27 in    
Wind  
Wind Speed 5 mph ()    
Max Wind Speed 10 mph    
Max Gust Speed -    
Visibility 10.0 miles    
Events      
T = Trace of Precipitation, MM = Missing Value Source: Averaged Metar Reports

Daily Weather History Graph

Daily Weather History Graph

Search for Another Location

Airport:

Trip Planner

Search our weather history database for the weather conditions in past years. The results will help you decide how hot, cold, wet, or windy it might be!

Date:

Astronomy

Dec. 04, 2012 Rise Set
Actual Time 7:02 AM MST 4:28 PM MST
Civil Twilight 6:31 AM MST 4:59 PM MST
Nautical Twilight 5:57 AM MST 5:33 PM MST
Astronomical Twilight 5:25 AM MST 6:06 PM MST
Moon 10:19 PM MST (12/4) 10:57 AM MST (12/4)
Length of Visible Light 10h 27m
Length of Day
9h 26m
Waning Gibbous, 69% of the Moon is Illuminated
Dec 4
Waning Gibbous
Dec 6
Last Quarter
Dec 13
New
Dec 19
First Quarter
Dec 28
Full

Hourly Weather History & Observations

Time (MST) Temp. Windchill Dew Point Humidity Pressure Visibility Wind Dir Wind Speed Gust Speed Precip Events Conditions
12:15 AM 25.3 °F 19.7 °F 14.2 °F 63% 30.22 in 10.0 mi NNW 4.6 mph - N/A   Clear
12:35 AM 25.7 °F 21.5 °F 14.7 °F 63% 30.21 in 10.0 mi North 3.5 mph - N/A   Clear
12:55 AM 25.3 °F 19.7 °F 14.5 °F 64% 30.22 in 10.0 mi NNW 4.6 mph - N/A   Clear
1:15 AM 23.7 °F 19.3 °F 14.0 °F 66% 30.22 in 10.0 mi WNW 3.5 mph - N/A   Clear
1:55 AM 25.0 °F 16.3 °F 14.4 °F 64% 30.24 in 10.0 mi NNW 8.1 mph - N/A   Clear
2:15 AM 26.4 °F 17.3 °F 14.4 °F 60% 30.24 in 10.0 mi North 9.2 mph - N/A   Clear
2:35 AM 25.9 °F 20.3 °F 13.6 °F 60% 30.25 in 10.0 mi WSW 4.6 mph - N/A   Clear
2:55 AM 21.7 °F - 14.0 °F 72% 30.25 in 10.0 mi Calm Calm - N/A   Clear
3:15 AM 25.9 °F - 13.6 °F 60% 30.25 in 10.0 mi Calm Calm - N/A   Clear
3:35 AM 25.2 °F 20.9 °F 11.8 °F 57% 30.25 in 10.0 mi SSE 3.5 mph - N/A   Clear
3:55 AM 21.2 °F 14.9 °F 13.3 °F 72% 30.25 in 10.0 mi SW 4.6 mph - N/A   Clear
4:15 AM 19.2 °F 14.1 °F 13.1 °F 77% 30.26 in 10.0 mi West 3.5 mph - N/A   Clear
4:35 AM 21.7 °F 12.3 °F 14.0 °F 72% 30.26 in 10.0 mi West 8.1 mph - N/A   Clear
4:55 AM 21.6 °F 11.3 °F 14.2 °F 73% 30.27 in 10.0 mi West 9.2 mph - N/A   Clear
5:15 AM 20.3 °F 10.6 °F 14.0 °F 77% 30.28 in 10.0 mi West 8.1 mph - N/A   Clear
5:35 AM 20.7 °F 11.9 °F 14.4 °F 77% 30.28 in 10.0 mi West 6.9 mph - N/A   Clear
5:55 AM 20.1 °F 10.3 °F 14.7 °F 80% 30.30 in 10.0 mi West 8.1 mph - N/A   Clear
6:15 AM 19.9 °F 10.1 °F 14.4 °F 79% 30.31 in 10.0 mi West 8.1 mph - N/A   Clear
6:35 AM 18.5 °F 6.8 °F 13.8 °F 82% 30.31 in 10.0 mi West 10.4 mph - N/A   Clear
6:55 AM 18.5 °F 7.5 °F 13.8 °F 82% 30.32 in 10.0 mi West 9.2 mph - N/A   Clear
7:15 AM 18.5 °F 7.5 °F 14.0 °F 83% 30.33 in 10.0 mi West 9.2 mph - N/A   Clear
7:35 AM 19.4 °F 10.4 °F 14.7 °F 82% 30.32 in 10.0 mi West 6.9 mph - N/A   Clear
7:55 AM 21.9 °F 13.4 °F 16.5 °F 80% 30.32 in 10.0 mi West 6.9 mph - N/A   Clear
8:15 AM 24.8 °F 16.1 °F 18.0 °F 75% 30.33 in 10.0 mi West 8.1 mph - N/A   Clear
8:35 AM 27.0 °F 20.5 °F 18.5 °F 70% 30.33 in 10.0 mi West 5.8 mph - N/A   Clear
8:55 AM 31.3 °F 24.7 °F 18.1 °F 58% 30.34 in 10.0 mi West 6.9 mph - N/A   Clear
9:15 AM 34.9 °F 28.3 °F 15.4 °F 45% 30.34 in 10.0 mi West 8.1 mph - N/A   Clear
9:35 AM 37.4 °F 30.3 °F 12.0 °F 35% 30.34 in 10.0 mi West 10.4 mph - N/A   Clear
9:55 AM 37.6 °F 32.3 °F 13.5 °F 37% 30.35 in 10.0 mi West 6.9 mph - N/A   Clear
10:15 AM 40.6 °F 36.0 °F 14.0 °F 34% 30.34 in 10.0 mi West 6.9 mph - N/A   Clear
10:35 AM 42.3 °F 39.4 °F 12.7 °F 30% 30.33 in 10.0 mi WSW 4.6 mph - N/A   Clear
10:55 AM 43.9 °F - 11.3 °F 27% 30.32 in 10.0 mi Calm Calm - N/A   Clear
11:15 AM 45.1 °F - 11.1 °F 25% 30.30 in 10.0 mi Calm Calm - N/A   Clear
11:35 AM 47.1 °F - 10.8 °F 23% 30.29 in 10.0 mi South 5.8 mph - N/A   Clear
11:55 AM 47.8 °F - 12.2 °F 24% 30.28 in 10.0 mi South 5.8 mph - N/A   Clear
12:15 PM 46.2 °F 44.1 °F 13.1 °F 26% 30.26 in 10.0 mi SSE 4.6 mph - N/A   Clear
12:35 PM 46.6 °F - 15.1 °F 28% 30.26 in 10.0 mi SSE 5.8 mph - N/A   Clear
12:55 PM 47.3 °F - 15.6 °F 28% 30.25 in 10.0 mi SSE 8.1 mph - N/A   Clear
1:15 PM 48.6 °F - 16.5 °F 28% 30.24 in 10.0 mi SSE 4.6 mph - N/A   Clear
1:35 PM 50.0 °F - 17.1 °F 27% 30.22 in 10.0 mi SE 4.6 mph - N/A   Clear
1:55 PM 50.2 °F - 17.6 °F 28% 30.20 in 10.0 mi SSE 6.9 mph - N/A   Clear
2:15 PM 50.0 °F - 16.9 °F 27% 30.19 in 10.0 mi SE 6.9 mph - N/A   Clear
2:35 PM 50.9 °F - 17.2 °F 26% 30.19 in 10.0 mi SE 6.9 mph - N/A   Clear
2:55 PM 49.8 °F - 17.2 °F 27% 30.19 in 10.0 mi SE 5.8 mph - N/A   Clear
3:15 PM 51.1 °F - 17.8 °F 27% 30.18 in 10.0 mi SE 6.9 mph - N/A   Clear
3:55 PM 48.0 °F - 18.1 °F 31% 30.17 in 10.0 mi ESE 4.6 mph - N/A   Clear
4:15 PM 44.4 °F 42.0 °F 17.6 °F 34% 30.16 in 10.0 mi ESE 4.6 mph - N/A   Clear
4:35 PM 42.4 °F 40.7 °F 18.0 °F 37% 30.16 in 10.0 mi ESE 3.5 mph - N/A   Clear